{"data":{"norad_id":62244,"intl_designator":"2024-232H","name":"QIANFAN-43","alt_names":[],"object_type":"PAYLOAD","status":"ACTIVE","operator":null,"country":"PRC","launch_date":"2024-12-05","launch_site_code":"TAISC","launch_vehicle":null,"mission":null,"orbit_class":"UNKNOWN","rcs_meters":null,"size_class":null,"mass_kg":null,"dimensions":null,"purposes":[],"wikipedia_slug":null,"has_3d_model":false,"image_url":null,"decayed_at":null,"tle_current":{"epoch":"2026-05-25T03:24:12.803040Z","epoch_age_seconds":59899,"freshness":"FRESH","line1":"1 62244U 24232H   26145.14181485  .00000106  00000+0  14455-3 0  9999","line2":"2 62244  89.0103  24.8446 0017517  83.9115 276.4032 13.51005546 89929","mean_motion":13.51005546,"eccentricity":0.0017517,"inclination_deg":89.0103,"raan_deg":24.8446,"arg_perigee_deg":83.9115,"mean_anomaly_deg":276.4032,"bstar":0.00014455,"rev_number":8992,"period_min":106.58727525312,"perigee_km":1055.5168243488,"apogee_km":1081.6055868423,"semimajor_km":7446.6982055955,"source":"CELESTRAK","updated_at":"2026-05-25T13:38:02.866865Z"}}}